Погода в Житомире

Погода в Житомире : погода сейчас, прогноз погоды и архив. Всё, что Вы хотите узнать о погоде в Житомире!

Хотите узнать прогноз погоды в Житомире? Тогда Вам сюда: Погода в Житомире

Поиск расширенной информации на нашем сайте:

Полезная информация:

Другие новости

Новости СМИ2

Главная страница сайта

Новости сайта

03.07.2017

Напоминаем, что на нашем специализированном сайте Метеоцентр.Азия вы можете получить высокодетализированные автоматические прогнозы погоды по пунктам России, СНГ и мира в авиационном формате (включающие направление и скорость ветра, видимость, явления погоды, количество и форму облачности, нижнюю и верхнюю границу облачности).

Рекомендуем:

Погода в Житомире - сегодня

Время (UTC), дата Ветер
(°,м/с) 
Видим.   Явления Облачность Т
(°С)
Тd
(°С)
f(%) Тe
(°С)
Pmin
(гПа)
dP
(гПа)
Po
(мм)
O2
(г/м3)
Тmin Tmax R s Состояние
почвы
21 18.05.19 080 (В) 10 км    10/0 верхняя 
[Cs]
+17 +11.1 68 +21  1011.5  0.4  739  278           
00 19.05.19 тихо ()   10 км    10/0 средняя, верхняя 
[Ac trans|Ci]
+16 +9.5 65 +17  1011.9  0.3  740  280           
03 19.05.19 090 (В) 10 км    6/0 средняя, верхняя 
[Ac trans|Cc]
+14.4 +8.9 70 +15  1011.3  -0.7  739  281           
06 19.05.19 100 (В) 10 км    10/3 600 м кучево-дожд., средняя 
[Cb cap|Ac und]
+16.8 +10 64 +19  1012  0.9  740  279  +13.9         
09 19.05.19 110 (В) 10 км    8/3 600 м средняя, верхняя 
[Cu med, cong|Ac trans|Ci fib]
+22.7 +13.5 56 +29  1011.9  0.4  740  273           
12 19.05.19 140 (ЮВ) 10 км    8/6 1140 м верхняя 
[Cu med, cong|Cc]
+25.5 +12.2 44 +30  1011.8  0.1  740  270           
15 19.05.19 120 (ЮВ) 10 км    3/0 верхняя 
[Cc]
+25.2 +8.9 36 +25  1011.3  -0.5  740  271           
18 19.05.19 090 (В) 10 км    6/0 средняя, верхняя 
[Ac lent|Cc]
+21.6 +10.6 50 +24  1012.1  0.5  740  274    +25.7       
21 19.05.19 040 (СВ) 10 км    3/0 средняя 
[Ac trans]
+18.1 +10.1 60 +22  1012.5  0.1  740  278           
00 20.05.19 110 (В) 10 км    3/0 средняя 
[Ac trans]
+16.2 +9.8 66 +19  1012.7  740  280           
03 20.05.19 120 (ЮВ) 10 км    8/0 средняя, верхняя 
[Ac trans|Cc]
+17 +8.9 59 +17  1012.8  0.2  740  279           
06 20.05.19 140 (ЮВ) 10 км    8/3 600 м кучево-дожд., средняя, верхняя 
[Cb cap|Ac trans|Ci fib]
+20 +10.7 55 +22  1013.1  0.5  741  276  +15.9         
09 20.05.19 140 (ЮВ) 10 км    5/3 600 м средняя, верхняя 
[Cu hum|Ac cast|Ci sp]
+24.6 +14.4 53 +33  1012.7  0.1  741  271           
12 20.05.19 140 (ЮВ) 10 км    8/4 1000 м кучево-дожд., средняя, верхняя 
[Cb cap|Ac trans|Ci fib]
+26.5 +13.1 44 +32  1011.8  -0.8  740  269           
15 20.05.19 130 (ЮВ) 10 км  гроза без осадков  9/6 750 м кучево-дожд., средняя, верхняя 
[Cb cap|Ac trans|Ci fib]
+26.1 +11.7 41 +30  1010  -1.8  739  270           
18 20.05.19 100 (В) 4000 м  гроза, ливневой дождь  10/8 600 м кучево-дожд., средняя 
[Cb calv|As op]
+16.5 +13.9 85 +25  1012.2  1.4  740  278    +27.3     
21 20.05.19 130 (ЮВ) 4000 м  гроза без осадков{ливн. осадки}  10/8 630 м кучево-дожд., средняя 
[Cb cap|As op]
+17.8 +15.8 88 +29  1011.6  -0.5  740  276           
00 21.05.19 010 (С) 4000 м  гроза, ливневой дождь  10/9 630 м кучево-дожд., средняя 
[Cb cap|As op]
+16.5 +16.2 98 +29  1010.2  -1.4  739  277      18     
03 21.05.19 110 (В) 4000 м  дымка{гроза, ливн. осадки}  10/3 600 м средняя, верхняя 
[Sc|Ac trans|Cc]
+15.8 +14.1 90 +24  1009.1  -1.2  738  278           
06 21.05.19 130 (ЮВ) 10 км  {гроза, ливн. осадки}  10/8 660 м средняя 
[Sc|Ac und]
+16.8 +14.4 86 +25  1009.3  0.3  738  277  +15.4    18     
09 21.05.19 150 (ЮВ) 10 км    10/8 570 м кучево-дожд., средняя 
[Cb cap|Ac und]
+18.6 +14.9 79 +28  1009.1  -0.1  738  275           
12 21.05.19 170 (Ю) 10 км    8/6 630 м верхняя 
[Cu Sc|Ci fib]
+21 +13 60 +27  1007.8  -1  737  273           
15 21.05.19 270 (З) 2000 м  гроза, ливневой дождь  8/8 630 м кучево-дожд. 
[Cb calv]
+20.4 +14.6 69 +29  1007.9  737  273           
18 21.05.19 тихо ()   10 км  в посл. час гроза{ливн. осадки}  5/5 660 м кучево-дожд. 
[Cb calv]
+14.7 +13.8 94 +22  1008.7  0.3  737  279    +23.2     
21 21.05.19 тихо ()   4000 м  дымка  ясно 
+12.4 +11.5 94 +16  1010  738  282           
Время (UTC), дата Ветер
(°,м/с) 
Видим.   Явления Облачность Т
(°С)
Тd
(°С)
f(%) Тe
(°С)
Pmin
(гПа)
dP
(гПа)
Po
(мм)
O2
(г/м3)
Тmin Tmax R s Состояние
почвы

Для получения пояснительной информации подведите курсор к названию столбца.

ПОГОДА в Житомире - архив

Всё, что Вы хотите узнать о погоде в Житомире - удобно и подробно!

Выберите нужную дату (начиная с 1 января 2018* года) и нажмите кнопку "Найти".
Будут отображены архивные сводки погоды по пункту Житомир, начиная с указанной даты.


Отображать данные в формате CSV (для использования в таблицах Excel)


Внимание! Наш архив погоды предназначен исключительно для личного некоммерческого использования в познавательных целях. Если Вам необходимы официальные справки о состоянии погоды (для производственных, юридических, коммерческих и т.п. целей), обращайтесь в органы Росгидромета.

*Примечание: данная дата относится к архиву по метеостанциям СССР (Россия, СНГ, Балтия).
Архив по метеостанциям Зарубежной Европы и Азии (кроме Китая) хранится 10 дней, по другим регионам земного шара (Китай, Африка, Америка, Австралия, Океания) - 1 день.

Житомир - район местоположения метеостанции


Название, широта, долгота, высота метеостанции:
Житомир 50.2°ш. 28.7°д. 224 м над ур. моря [Украина]

Дополнительная информация

В oтличие oт бoльшинства пoгoдных сайтoв мы публикуем пoдрoбную метеoинфoрмацию в детальнoм прoфессиoнальнoм фoрмате.

Характеристики температуры и влажнoсти вoздуха измеряются на высoте 2 м в тени вдали oт зданий и деревьев.
Скoрoсть ветра измеряется на высoте 10 м (на урoвне рoста челoвека скoрoсть ветра ниже в 1.5-2 раза). Если метеoстанция нахoдится в гoрoде или в лесу, тo скoрoсть ветра занижена на 2-4 м/с пo сравнению с oткрытым местoм. Скoрoсть ветра над акватoриями крупных рек и oзёр, а также на вершинах хoлмoв на 2-5 м/с выше, чем в oбычных услoвиях.
Атмoсфернoе давление в разных тoчках местнoсти мoжет значительнo oтличаться oт давления на метеoстанции, в зависимoсти oт услoвий рельефа (при пoдъёме на 10 м давление пoнижается примернo на 1 мм рт.ст.).